COSMOS 1275 DEB, 13456

Orbit data source: Space-Track

COSMOS 1275 DEB, 13456 is space debris in LEO originally from a launch on Thu, 04 Jun 1981 UTC launched from the Plesetsk Missile And Space Complex (PKMTR). Debris objects in space refer to the collection of defunct objects orbiting the Earth. Examples of debris include non-operational satellites, rocket bodies, and fragments generated from explosions, collisions, or faulty payload assembly.

Loading next visibility...
Identifier
13456, 1981-053FC
Orbit
LEO
Country
Flag of CISCIS
Related business
Manufacturer
Unknown
Mission
Spacecraft
Bus & Motor
Unknown
Mass
Unknown
Launch date (UTC)
1981-06-04 (45 years ago)
Launch vehicle
Unknown
Launch site
Plesetsk Missile And Space Complex (PKMTR)
Object type
Payload
Rocket body
Debris
Shape & HBR
Unknown shape, 0.1 m
Radar Cross Section
Small (<0.1 m²)

Expand to show TLE details & history
Last TLE update: 8 hours ago

TLE from 8 hours ago
0 COSMOS 1275 DEB
1 13456U 81053FC  26119.23352863  .00003085  00000-0  23776-2 0  9990
2 13456  82.8289  39.3543 0141355 193.8806 320.8707 13.88114960205374
Epoch: 2026-04-29T05:36Z
TLE epoch observation values (Epoch: 2026-04-29T05:36:16.873Z)
Latitude
26.09812°
Longitude
-85.42822°
Altitude
858.805 km
Speed
7.466 km/s
True Right ascension
14h 23m 21s
True Declination
25° 57' 52"
Sunlit
Object was in full shadow at epoch
Visualization orbit readout
Latitude
Unknown
Longitude
Unknown
Altitude
Unknown
Speed
Unknown
Apparent Right ascension
Unknown
Apparent Declination
Unknown
Sunlit
N/A
Visualization observer readout
Local Sidereal Time
20:54:43
Azimuth
Unknown
Elevation
Unknown
Doppler factor
Unknown
Orbital elements
Apogee altitude
1,035.716 km
Perigee altitude
829.041 km
Semi-major axis
7,310.516 km
Eccentricity
0.01414
Inclination
82.8289°
RAAN
39.3543°
Arg. of periapsis
193.8806°
True anomaly
319.83434°
Mean anomaly
320.8707°
Eccentric anomaly
320.35395°
Mean motion
3.47233 °/min
Orbital period
103.68 mins
BSTAR
0.0023776
Loading maneuver chart data...
Computing Atmospheric mass density...

Documentation

Showing up to 5 results
|